Quesnel Airport, British Columbia

12:47 AM PDT on September 26, 2016 (GMT -0700)
Quesnel

Weather History for CYQZ - September, 2013

Change the Weather History Date:

Sunday, September 15, 2013

  Actual Average Record
Temperature  
Mean Temperature 64 °F -  
Max Temperature 87 °F 61 °F 87 °F (2013)
Min Temperature 42 °F 38 °F 30 °F (2012)
Growing Degree Days 14 (Base 50)    
Moisture  
Dew Point 50 °F    
Average Humidity 63    
Maximum Humidity 100    
Minimum Humidity 25    
Precipitation  
Precipitation 0.00 in - - ()
Sea Level Pressure  
Sea Level Pressure 29.71 in    
Wind  
Wind Speed 2 mph ()    
Max Wind Speed 16 mph    
Max Gust Speed 23 mph    
Visibility 8.8 miles    
Events Rain , Thunderstorm    
Averages and records for this station are not official NWS values.
T = Trace of Precipitation, MM = Missing Value Source: Averaged Metar Reports

Daily Weather History Graph

Daily Weather History Graph

Search for Another Location

Airport or City:

Trip Planner

Search our weather history database for the weather conditions in past years. The results will help you decide how hot, cold, wet, or windy it might be!

Date:

Astronomy

Sep. 15, 2013 Rise Set
Actual Time 6:44 AM PDT 7:24 PM PDT
Civil Twilight 6:09 AM PDT 7:59 PM PDT
Nautical Twilight 5:27 AM PDT 8:40 PM PDT
Astronomical Twilight 4:43 AM PDT 9:25 PM PDT
Moon 5:18 PM PDT (9/15) 2:00 AM PDT (9/15)
Length of Visible Light 13h 49m
Length of Day
12h 39m
Waxing Gibbous, 83% of the Moon is Illuminated
Sep 15
Waxing Gibbous
Sep 19
Full
Sep 26
Last Quarter
Oct 4
New
Oct 11
First Quarter

Hourly Weather History & Observations

Time (PDT) Temp. Dew Point Humidity Pressure Visibility Wind Dir Wind Speed Gust Speed Precip Events Conditions
12:00 AM 48.2 °F 44.6 °F 87% 29.86 in 9.0 mi Calm Calm - N/A   Clear
1:00 AM 50.0 °F 44.6 °F 82% 29.86 in 9.0 mi Calm Calm - N/A   Clear
2:00 AM 46.4 °F 42.8 °F 87% 29.86 in 9.0 mi Calm Calm - N/A   Clear
3:00 AM 46.4 °F 42.8 °F 87% 29.85 in 9.0 mi Calm Calm - N/A   Clear
4:00 AM 44.6 °F 42.8 °F 93% 29.86 in 9.0 mi Calm Calm - N/A   Clear
5:00 AM 44.6 °F 42.8 °F 93% 29.85 in 9.0 mi Calm Calm - N/A   Clear
6:00 AM 44.6 °F 41.0 °F 87% 29.85 in 9.0 mi Calm Calm - N/A   Clear
7:00 AM 42.8 °F 42.8 °F 100% 29.86 in 9.0 mi Calm Calm - N/A   Clear
8:00 AM 46.4 °F 42.8 °F 87% 29.86 in 9.0 mi Calm Calm - N/A   Clear
9:00 AM 51.8 °F 46.4 °F 82% 29.85 in 9.0 mi Calm Calm - N/A   Clear
10:00 AM 57.2 °F 46.4 °F 67% 29.84 in 9.0 mi Variable 2.3 mph - N/A   Clear
11:00 AM 62.6 °F 46.4 °F 55% 29.82 in 9.0 mi Variable 2.3 mph - N/A   Clear
12:00 PM 69.8 °F 48.2 °F 46% 29.78 in 9.0 mi South 3.5 mph - N/A   Clear
1:00 PM 75.2 °F 48.2 °F 38% 29.74 in 9.0 mi Calm Calm - N/A   Clear
2:00 PM 80.6 °F 48.2 °F 32% 29.71 in 9.0 mi SSW 5.8 mph - N/A   Clear
3:00 PM 84.2 °F 50.0 °F 30% 29.67 in 9.0 mi Variable 2.3 mph - N/A   Clear
4:00 PM 86.0 °F 48.2 °F 27% 29.63 in 9.0 mi NNW 3.5 mph - N/A   Clear
5:00 PM 87.8 °F 48.2 °F 25% 29.60 in 9.0 mi Calm Calm - N/A   Clear
6:00 PM 84.2 °F 50.0 °F 30% 29.57 in 9.0 mi Calm Calm - N/A   Clear
7:00 PM 71.6 °F 55.4 °F 57% 29.57 in 9.0 mi Variable 2.3 mph - N/A   Scattered Clouds
7:17 PM 69.8 °F 55.4 °F 60% 29.58 in 9.0 mi Calm Calm - N/A Thunderstorm Overcast
7:34 PM 73.4 °F 55.4 °F 53% 29.60 in 9.0 mi Variable 13.8 mph - N/A Thunderstorm Thunderstorm
7:51 PM 77.0 °F 51.8 °F 41% 29.60 in 8.0 mi SSE 3.5 mph 20.7 mph N/A   Overcast
7:54 PM 75.2 °F 53.6 °F 47% 29.60 in 6.0 mi South 3.5 mph 17.3 mph N/A Rain Light Rain
8:00 PM 73.4 °F 55.4 °F 53% 29.60 in 7.0 mi Calm Calm - N/A Rain , Thunderstorm Light Thunderstorms and Rain
8:08 PM 73.4 °F 51.8 °F 47% 29.60 in 9.0 mi Variable 3.5 mph - N/A Thunderstorm Thunderstorm
8:17 PM 73.4 °F 51.8 °F 47% 29.63 in 9.0 mi SSW 9.2 mph - N/A   Overcast
8:36 PM 71.6 °F 55.4 °F 57% 29.65 in 9.0 mi Variable 6.9 mph - N/A Rain Light Rain
9:00 PM 68.0 °F 57.2 °F 68% 29.66 in 9.0 mi Variable 4.6 mph - N/A Rain Light Rain
9:34 PM 66.2 °F 57.2 °F 73% 29.67 in 9.0 mi SSE 16.1 mph 23.0 mph N/A Rain Light Rain
10:00 PM 66.2 °F 57.2 °F 73% 29.66 in 9.0 mi SE 8.1 mph - N/A Rain Light Rain
11:00 PM 64.4 °F 57.2 °F 77% 29.62 in 9.0 mi East 6.9 mph - N/A Rain Light Rain
11:04 PM 64.4 °F 57.2 °F 77% 29.62 in 9.0 mi East 5.8 mph - N/A   Overcast